Temp
-2 -1 -0 1 2 1 2 2 3 3 4 4 6 7 8 8 9 9 10 11 11 11 11 11 12 11 12 12 12 12 12 12 12 12 12 12 12 11 11 11 10 9 9 8
-3 -2 -1 -1 -0 0 1 2 2 3 4 4 5 6 7 7 9 10 10 11 11 11 11 11 12 11 11 11 11 11 12 12 12 12 12 11 11 11 11 10 10 9 8 8
-2 -2 -2 -1 -1 -0 0 1 1 1 3 3 4 5 6 8 8 9 10 10 11 11 11 11 11 11 11 11 11 11 12 12 12 11 11 11 11 10 10 10 10 9 8 7
-2 -2 -2 -2 -1 -1 -0 0 0 1 2 3 4 2 4 8 9 9 10 10 11 11 11 12 11 11 11 11 11 11 12 12 12 11 11 11 10 10 10 9 9 8 7 7
-2 -2 -1 -1 -1 -1 -1 -0 0 0 1 2 3 3 5 7 10 10 10 11 10 11 11 11 11 11 11 11 11 11 12 12 12 11 11 11 10 10 10 10 9 9 7 7
-3 -2 -2 -1 -1 -1 -0 -0 0 1 1 0 2 3 5 6 9 10 10 11 12 11 11 11 11 11 11 11 11 12 12 12 12 11 11 11 10 10 10 10 9 9 8 7
-3 -2 -2 -1 -1 -1 -1 -0 -2 -2 -2 -0 3 2 5 7 7 9 10 10 11 10 11 11 11 11 11 12 12 12 12 12 11 11 11 11 10 10 10 10 8 7 7 6
-4 -2 -2 -1 -1 -1 -0 -0 -1 -1 -1 1 2 2 3 6 8 9 9 10 10 11 10 11 11 11 12 12 12 12 12 11 11 11 11 10 11 10 10 8 7 7 6 6
-3 -4 -3 -1 -1 -1 -1 -0 1 1 1 1 3 3 4 8 8 8 9 10 10 10 11 11 11 12 12 12 12 11 11 11 11 11 10 10 10 9 8 7 7 6 6 5
-4 -3 -3 -3 -3 -1 -1 -0 0 0 -1 -0 1 3 4 7 8 8 8 9 10 11 12 11 12 12 11 11 11 11 11 11 11 10 10 10 9 8 7 6 6 6 5 5
-4 -4 -2 -2 -2 -1 -1 -0 -0 0 1 -1 0 3 6 7 8 7 8 10 11 12 12 12 12 11 11 11 11 11 11 11 11 10 9 9 8 7 7 6 6 5 5 4
-4 -4 -4 -3 -2 -2 -2 -1 -1 -0 1 1 1 2 6 5 6 7 9 9 12 12 12 12 12 11 11 11 11 11 11 11 10 9 8 8 8 7 7 6 6 5 5 4
-5 -5 -5 -3 -3 -3 -3 -2 -2 -2 -1 -1 -0 2 5 7 7 7 8 9 11 12 12 12 11 11 11 10 11 11 11 10 9 8 8 8 7 7 6 6 5 4 5 4
-5 -6 -5 -5 -3 -4 -4 -3 -3 -3 -3 -1 -1 0 3 5 6 6 7 8 10 11 12 11 11 11 11 11 11 10 10 9 8 8 8 7 7 6 5 5 4 4 4 4
-6 -6 -5 -5 -5 -4 -4 -3 -3 -3 -4 -3 -2 -0 2 3 4 5 6 7 9 10 11 11 11 11 11 11 10 10 9 8 8 8 7 6 6 5 5 4 4 4 4 4
-6 -6 -6 -6 -5 -4 -4 -3 -3 -3 -3 -4 -4 -2 1 2 3 5 6 7 9 10 10 10 10 11 10 10 10 9 8 8 8 7 6 6 6 5 5 4 4 4 4 4
-6 -6 -6 -6 -5 -5 -5 -3 -2 -1 -1 -2 -3 -0 1 2 3 6 6 6 9 10 9 10 10 9 10 9 9 8 8 8 7 7 6 6 5 5 5 5 4 4 4 4
-6 -6 -6 -6 -5 -7 -3 -3 -3 -2 -1 -1 -1 1 2 2 4 5 6 6 8 10 9 9 9 9 9 9 9 8 8 7 7 6 6 5 5 5 5 5 5 4 4 4
-6 -6 -6 -6 -5 -4 -2 -3 -3 -3 -2 -1 -1 1 2 3 4 6 6 7 8 9 8 8 8 8 8 8 8 8 8 7 7 6 5 5 4 5 5 4 4 4 4 4
-5 -6 -6 -6 -6 -5 -4 -3 -3 -3 -2 -1 1 2 3 3 4 5 6 7 7 8 7 7 8 8 8 8 8 8 7 7 6 5 4 4 4 4 4 4 4 4 4 4
-5 -5 -6 -6 -5 -4 -4 -4 -4 -3 -2 -2 1 2 3 4 5 6 6 7 7 8 7 7 8 7 7 8 8 7 7 6 5 5 4 4 4 4 4 3 3 3 3 3
-5 -5 -5 -5 -5 -5 -4 -4 -3 -3 -1 -1 1 2 3 4 5 6 7 7 7 8 8 7 7 7 7 7 7 7 6 6 5 5 3 4 5 4 4 3 3 3 3 3
-5 -5 -5 -4 -4 -4 -4 -3 -3 -3 -2 -1 0 2 3 5 6 7 7 7 7 8 8 7 7 7 7 7 7 7 6 6 5 4 3 4 5 4 4 3 3 3 3 3
-5 -5 -5 -4 -4 -4 -3 -3 -3 -2 -1 -0 0 2 3 5 6 7 7 7 6 7 7 7 6 6 7 7 7 6 6 6 5 5 3 5 5 4 4 3 3 3 3 3
-5 -5 -5 -5 -4 -4 -4 -3 -2 -1 -1 1 1 2 3 5 6 7 7 6 7 7 8 7 7 6 6 6 7 7 6 6 5 5 4 5 5 5 4 3 3 3 3 3
-5 -5 -4 -5 -4 -4 -4 -4 -2 -1 -1 -0 2 2 2 3 5 6 7 7 7 8 8 8 7 6 6 6 6 7 7 6 5 6 5 5 5 5 5 4 3 3 2 3
Height
3028 3029 3020 3024 3033 3038 3039 3041 3043 3047 3053 3057 3054 3049 3055 3059 3059 3058 3060 3062 3063 3064 3069 3073 3076 3078 3079 3083 3084 3085 3085 3086 3086 3087 3087 3088 3089 3090 3091 3092 3091 3090 3089 3090
3025 3018 3024 3028 3031 3032 3035 3037 3038 3043 3047 3048 3047 3042 3045 3046 3047 3049 3051 3052 3054 3056 3059 3063 3066 3069 3072 3074 3076 3077 3078 3079 3080 3080 3080 3080 3083 3083 3085 3086 3085 3084 3084 3083
3021 3021 3023 3024 3026 3029 3030 3033 3036 3040 3040 3041 3042 3030 3034 3036 3037 3041 3041 3043 3045 3046 3049 3053 3057 3060 3063 3066 3069 3069 3069 3071 3072 3072 3073 3074 3075 3076 3078 3079 3079 3078 3077 3076
3016 3017 3018 3019 3020 3025 3026 3031 3033 3037 3039 3039 3042 3023 3022 3026 3025 3029 3032 3035 3037 3040 3043 3046 3049 3052 3056 3058 3059 3061 3061 3062 3064 3066 3067 3067 3069 3069 3072 3072 3071 3070 3071 3070
3011 3012 3014 3015 3016 3020 3021 3027 3032 3035 3036 3037 3034 3035 3003 3018 3014 3018 3026 3027 3031 3034 3036 3037 3041 3045 3047 3049 3051 3053 3054 3055 3057 3059 3061 3061 3063 3064 3064 3065 3064 3065 3068 3067
3004 3008 3009 3011 3012 3015 3019 3023 3029 3032 3033 3030 3027 3036 2993 3007 3007 3015 3018 3020 3023 3025 3026 3029 3033 3035 3038 3041 3043 3045 3047 3049 3050 3052 3055 3057 3058 3058 3058 3059 3059 3060 3062 3062
2999 2998 3003 3006 3008 3011 3014 3016 3021 3029 3030 3019 3019 3027 2995 3000 3003 3008 3014 3017 3019 3020 3021 3023 3027 3031 3033 3035 3036 3038 3040 3042 3044 3047 3049 3051 3053 3053 3053 3053 3054 3056 3057 3058
2996 2997 2998 3001 3003 3005 3008 3010 3008 3014 3016 3011 3018 3005 2991 2995 3002 3005 3011 3015 3015 3016 3017 3019 3023 3026 3028 3030 3031 3033 3035 3037 3041 3044 3045 3047 3048 3048 3049 3050 3051 3051 3052 3053
2997 2997 2995 2996 2999 3002 3004 3004 3007 3008 3007 3008 3001 2992 2993 2997 2997 3002 3008 3011 3009 3009 3012 3015 3019 3022 3024 3025 3028 3030 3032 3035 3038 3040 3042 3043 3043 3044 3045 3046 3047 3048 3049 3049
3000 2997 2995 2996 2998 2999 3000 3003 3005 3005 3006 3005 2991 2989 2987 2991 2997 3003 3005 3005 3004 3004 3006 3011 3015 3018 3021 3023 3025 3028 3030 3033 3036 3038 3039 3040 3040 3042 3043 3043 3044 3045 3046 3046
3000 2999 2996 2995 2994 2996 2998 2997 3000 3000 2998 2995 2991 2984 2985 2991 2998 2998 3000 3002 3000 3002 3004 3008 3012 3015 3018 3021 3024 3026 3029 3031 3034 3036 3036 3037 3038 3039 3040 3041 3042 3042 3043 3044
2999 2997 2994 2992 2992 2993 2993 2994 2996 2996 2993 2991 2992 2988 2982 2986 2989 2993 2997 2997 2995 2999 3003 3006 3009 3013 3015 3019 3022 3025 3027 3030 3031 3033 3034 3034 3035 3036 3037 3038 3039 3040 3041 3042
2999 2997 2994 2991 2990 2988 2989 2991 2992 2991 2991 2985 2990 2983 2983 2983 2986 2991 2992 2992 2993 2997 3000 3004 3007 3010 3014 3017 3020 3023 3025 3027 3029 3030 3030 3031 3032 3033 3033 3035 3036 3038 3039 3040
2996 2993 2992 2991 2990 2989 2987 2986 2987 2988 2985 2982 2980 2984 2977 2981 2983 2988 2992 2992 2992 2995 2999 3002 3006 3009 3012 3015 3018 3021 3023 3025 3026 3027 3028 3028 3029 3030 3032 3033 3034 3036 3038 3039
2992 2989 2989 2988 2987 2985 2984 2981 2981 2979 2979 2979 2980 2982 2975 2979 2982 2987 2990 2990 2991 2994 2997 3001 3005 3009 3011 3013 3016 3019 3021 3023 3024 3025 3025 3026 3028 3030 3031 3033 3034 3035 3037 3039
2985 2984 2983 2982 2981 2980 2976 2973 2971 2971 2971 2969 2975 2975 2978 2980 2983 2986 2988 2988 2989 2991 2996 3000 3003 3006 3009 3013 3015 3018 3020 3021 3022 3023 3024 3026 3028 3029 3030 3032 3033 3034 3037 3038
2979 2980 2981 2978 2977 2976 2969 2964 2962 2960 2961 2965 2967 2974 2979 2978 2981 2983 2985 2986 2985 2988 2995 3000 3002 3005 3009 3012 3014 3017 3018 3020 3021 3022 3024 3026 3028 3028 3028 3030 3032 3034 3036 3038
2973 2976 2979 2975 2975 2971 2957 2957 2953 2949 2954 2959 2964 2970 2974 2974 2977 2979 2982 2983 2982 2987 2994 2999 3001 3004 3008 3011 3013 3015 3017 3019 3020 3022 3025 3027 3027 3028 3029 3030 3033 3035 3036 3039
2968 2972 2975 2973 2969 2958 2951 2951 2951 2948 2948 2953 2959 2963 2968 2972 2973 2975 2978 2980 2981 2986 2994 3000 3002 3005 3009 3011 3012 3015 3016 3018 3021 3024 3026 3027 3028 3029 3030 3032 3033 3035 3037 3039
2965 2967 2968 2967 2965 2958 2951 2949 2949 2948 2947 2949 2954 2958 2964 2968 2970 2974 2977 2979 2981 2986 2994 2999 3002 3005 3008 3010 3013 3015 3017 3019 3022 3025 3027 3028 3029 3030 3031 3033 3034 3036 3038 3040
2961 2961 2962 2964 2960 2954 2949 2947 2946 2946 2949 2946 2947 2953 2955 2960 2968 2974 2976 2979 2981 2989 2994 2998 3003 3006 3009 3011 3013 3015 3017 3019 3023 3026 3027 3028 3029 3031 3032 3033 3035 3037 3039 3040
2964 2963 2959 2958 2956 2952 2946 2941 2942 2941 2942 2943 2945 2950 2954 2958 2964 2969 2973 2977 2983 2988 2993 2997 3003 3006 3009 3010 3013 3015 3017 3020 3024 3026 3028 3029 3031 3032 3033 3034 3035 3037 3039 3040
2964 2963 2958 2957 2952 2948 2941 2936 2934 2935 2940 2942 2945 2948 2952 2958 2964 2967 2973 2976 2981 2988 2995 2998 3004 3007 3009 3011 3014 3016 3018 3021 3024 3026 3028 3031 3032 3033 3034 3035 3036 3038 3040 3040
2964 2959 2957 2954 2951 2944 2941 2935 2933 2935 2937 2941 2944 2947 2951 2957 2963 2966 2973 2977 2982 2991 2995 2999 3003 3008 3010 3013 3014 3016 3018 3022 3024 3027 3029 3031 3033 3035 3036 3036 3037 3038 3039 3040
2967 2962 2958 2954 2950 2947 2943 2936 2937 2937 2939 2940 2944 2947 2952 2956 2962 2967 2972 2978 2984 2990 2995 2999 3003 3008 3012 3014 3015 3016 3019 3023 3025 3028 3029 3032 3034 3036 3036 3037 3038 3039 3040 3041
2969 2965 2961 2958 2954 2950 2946 2940 2938 2937 2939 2945 2944 2948 2952 2956 2961 2967 2971 2976 2981 2985 2992 2998 3003 3006 3012 3015 3016 3017 3020 3023 3025 3028 3030 3033 3035 3037 3038 3038 3039 3040 3041 3041
Wind_Speed
20 30 44 46 49 41 13 20 17 24 17 20 33 44 45 44 45 47 47 48 49 52 51 49 45 44 43 29 26 28 28 26 27 28 30 31 29 29 29 26 23 23 24 21
16 31 37 35 30 39 32 20 16 17 21 20 29 36 42 41 47 49 47 46 44 43 43 44 44 39 30 26 25 23 21 22 25 23 28 25 26 28 26 25 27 25 23 22
18 18 23 31 26 22 26 34 30 24 15 21 27 43 45 46 48 48 47 45 43 41 37 35 35 32 26 28 26 28 30 28 26 24 25 24 26 25 27 28 25 22 20 20
20 18 20 15 28 30 24 18 11 11 15 25 18 14 37 42 46 45 43 39 38 34 31 27 28 30 27 27 26 23 28 27 24 24 27 26 21 22 23 25 24 24 18 20
24 23 18 16 19 19 27 32 25 17 16 20 29 18 50 25 37 38 42 41 40 37 35 31 29 30 33 31 28 28 23 23 22 25 23 21 20 21 23 26 24 18 19 23
30 31 26 18 10 15 16 18 19 14 19 15 26 16 52 43 46 39 34 33 28 22 20 21 22 21 21 25 24 25 24 25 25 22 18 17 20 20 18 16 18 16 17 18
12 24 26 27 22 17 14 16 5 4 5 13 16 20 54 3 9 5 3 5 3 7 14 18 16 17 17 19 20 20 22 26 19 17 17 19 20 16 16 17 16 13 14 16
7 5 19 18 21 16 14 23 8 6 6 6 19 19 23 19 39 39 31 21 17 10 9 16 17 15 16 13 17 17 15 14 13 14 15 18 14 14 12 12 12 13 15 16
4 3 4 15 12 15 11 22 27 4 4 3 12 31 36 9 15 13 8 12 8 7 13 20 18 14 11 12 12 12 11 11 11 12 15 14 14 11 11 11 13 15 15 14
4 6 3 5 7 10 8 10 14 11 4 5 9 19 19 13 28 19 11 10 14 12 14 20 17 12 10 12 9 9 10 10 11 12 13 12 11 12 13 13 14 14 13 10
6 8 10 9 9 11 13 20 11 15 21 4 2 5 2 4 11 17 13 11 13 12 14 17 13 15 12 13 11 9 9 10 10 11 11 12 13 12 12 12 13 12 10 9
7 6 9 15 13 12 11 12 16 17 15 23 12 11 5 8 6 7 7 10 4 11 12 10 12 14 13 14 11 9 9 10 11 11 11 11 10 10 11 12 11 10 9 7
8 5 6 4 3 7 14 20 20 22 17 19 5 11 10 10 4 5 9 14 8 14 12 12 12 11 14 13 11 11 12 11 9 10 10 9 9 9 9 9 8 7 6 6
14 13 14 9 7 11 14 14 14 13 15 21 28 26 44 29 22 15 18 15 2 17 15 14 10 11 12 12 13 14 10 9 10 9 8 9 8 7 8 7 7 6 6 7
17 17 16 17 17 16 17 23 22 25 27 19 21 22 44 44 39 26 21 19 8 19 19 16 11 9 12 14 16 13 10 9 9 9 8 7 7 8 8 7 7 6 7 7
15 18 17 18 19 16 22 26 28 33 38 40 31 31 35 38 33 27 17 17 9 20 21 17 14 11 14 14 12 10 9 9 9 7 6 6 6 7 7 6 6 8 8 6
20 14 9 11 10 11 21 27 31 40 42 41 36 31 33 39 35 20 18 18 7 20 20 16 12 13 13 12 9 9 9 9 8 6 9 8 5 2 1 4 7 9 7 5
17 17 14 11 14 4 14 12 18 25 39 38 36 32 24 26 31 29 22 18 6 18 19 15 15 16 13 10 10 10 9 9 8 7 10 8 5 3 3 5 8 8 6 6
18 21 11 6 9 21 28 18 10 10 24 34 30 25 24 19 27 28 22 12 9 21 17 14 16 14 10 7 9 9 8 9 7 13 10 7 5 4 4 5 7 7 6 6
13 21 21 11 5 4 11 5 4 14 20 16 25 24 21 20 26 23 16 10 7 23 17 18 16 14 9 10 10 8 9 9 11 13 10 7 4 4 6 6 8 7 6 6
2 19 29 24 10 10 17 19 18 11 8 18 27 24 24 21 19 15 15 7 9 22 23 21 15 11 9 11 9 9 10 11 16 13 9 5 5 6 7 7 7 6 5 5
4 5 10 14 8 8 15 9 11 10 14 16 23 22 22 19 15 14 11 12 15 26 26 22 15 13 12 12 10 12 12 12 15 12 8 8 6 7 7 7 6 5 5 5
8 11 5 5 6 12 15 16 3 14 19 15 18 18 17 18 13 17 15 11 39 24 24 23 17 12 12 12 11 12 11 11 15 13 10 8 6 6 7 8 8 7 5 3
23 21 15 12 28 17 22 19 15 12 23 14 16 20 21 22 17 17 16 19 35 27 22 22 19 13 9 11 11 12 10 10 15 15 11 9 8 6 6 7 6 6 5 4
20 22 22 24 28 24 25 23 13 14 14 23 20 20 21 22 20 20 22 28 25 17 24 21 18 14 11 7 10 12 11 11 14 13 12 10 8 7 6 5 4 4 2 2
18 20 23 20 25 22 26 18 16 19 14 20 27 26 22 19 19 22 25 23 23 18 22 22 20 19 14 9 6 10 11 11 12 11 11 9 7 6 5 4 3 2 3 2
Wind_Direction
217 220 221 227 226 224 243 226 228 230 237 235 248 259 261 264 260 258 255 255 256 255 256 257 259 263 267 257 267 267 272 271 271 268 267 272 276 267 270 275 267 271 269 268
241 236 234 234 235 230 227 228 226 229 225 239 248 252 255 255 257 258 260 260 262 263 260 258 256 257 254 252 262 266 266 269 276 271 271 270 267 270 267 268 262 268 267 266
262 246 245 244 241 238 243 242 252 257 221 233 261 262 255 254 257 258 257 261 262 264 264 259 253 247 244 249 257 272 268 267 269 266 267 272 269 269 264 264 268 275 264 261
263 253 251 263 241 238 241 233 233 243 258 258 258 282 272 257 256 254 256 255 256 261 264 264 256 245 247 252 266 270 274 260 261 263 269 269 271 270 260 258 262 259 252 260
251 244 255 265 261 247 251 246 249 250 248 267 258 286 270 272 263 259 258 259 262 263 262 259 259 259 257 259 259 265 266 258 261 256 257 264 269 265 256 259 262 262 259 259
257 248 238 246 256 240 248 227 233 243 240 254 250 236 275 266 266 275 277 271 261 250 246 246 244 250 250 251 252 255 253 257 254 235 250 262 265 265 261 265 266 259 240 243
276 235 234 231 252 253 231 212 156 179 196 233 224 212 243 45 194 195 264 189 354 275 236 235 235 236 240 245 248 248 247 256 226 232 251 261 263 260 258 258 251 238 243 256
254 223 227 233 239 233 245 212 182 171 188 228 216 227 241 268 255 265 276 271 290 285 243 222 219 224 233 240 242 244 235 208 220 237 254 262 253 255 254 239 232 246 263 267
336 304 238 197 215 207 211 215 216 284 244 198 210 248 256 253 240 234 228 300 305 274 229 213 206 210 226 231 219 222 205 213 227 246 258 247 258 255 236 236 252 264 264 267
317 306 267 255 219 212 223 201 202 200 208 229 243 248 239 217 253 267 289 260 279 247 217 203 206 210 210 198 194 188 193 211 232 237 245 257 249 238 245 251 256 258 261 266
294 261 263 248 214 222 214 236 229 230 234 210 298 268 158 192 257 256 273 274 267 216 198 195 212 209 207 203 202 197 214 216 224 243 250 250 250 244 244 250 251 252 257 264
291 282 273 282 269 233 223 227 236 236 235 246 268 280 115 294 260 253 261 333 187 187 194 211 194 205 213 202 200 210 206 217 235 244 248 254 244 246 252 249 245 244 247 250
289 259 303 318 43 215 227 230 234 249 257 255 235 234 234 179 155 14 320 349 165 173 177 190 196 200 189 197 206 203 213 233 248 249 253 245 249 253 235 236 235 241 248 204
276 267 251 243 288 298 277 251 233 253 252 254 248 261 246 249 270 321 340 339 107 171 173 180 193 191 193 196 195 205 221 240 245 251 243 249 250 223 226 227 243 252 206 201
268 262 271 276 277 260 281 271 254 240 249 257 256 253 255 259 268 287 329 323 333 187 180 184 196 210 203 198 201 207 222 237 244 239 248 232 217 213 219 228 239 218 198 199
237 258 274 287 285 275 274 263 257 254 244 250 255 263 258 264 273 277 316 325 277 195 194 195 197 215 203 198 204 213 225 236 233 241 218 209 200 205 229 228 217 192 195 193
243 249 261 272 277 282 279 268 273 249 242 242 241 252 266 265 262 259 293 326 225 197 205 205 207 185 191 197 207 219 226 217 224 204 170 147 137 148 226 194 184 178 188 185
234 237 244 274 291 255 269 262 284 255 242 236 241 248 267 266 260 255 271 317 193 189 198 214 188 174 186 193 212 204 199 209 197 175 143 129 100 79 119 160 175 175 175 182
225 219 233 245 226 283 287 268 254 254 242 237 231 236 246 249 260 253 265 312 191 174 192 206 173 170 179 200 187 187 193 186 177 146 138 125 106 106 134 158 167 176 173 166
217 219 217 220 238 266 296 219 235 235 261 228 216 233 238 231 251 253 267 308 215 167 183 181 168 170 185 178 174 177 174 162 153 143 134 122 124 147 152 157 153 155 157 150
289 207 221 232 252 276 277 283 287 205 224 213 214 223 231 231 243 246 255 263 184 169 173 165 162 163 169 160 163 166 158 152 158 153 131 115 125 146 153 158 151 159 158 155
336 310 235 236 240 260 290 293 214 210 208 216 210 215 223 224 230 229 216 250 196 174 166 159 159 163 159 146 153 158 156 163 167 146 130 112 123 134 142 146 146 162 181 195
348 338 270 268 284 324 2 354 313 192 209 213 207 207 216 218 201 199 201 224 178 166 165 158 163 146 149 140 147 157 156 166 164 153 142 131 131 132 130 131 128 120 114 125
0 8 353 4 6 13 15 40 93 137 198 208 196 191 194 192 195 196 197 179 169 180 173 165 164 166 145 145 148 150 155 169 163 163 148 145 145 144 146 143 136 138 156 150
2 3 1 8 6 15 4 40 115 187 196 165 174 174 171 169 186 192 168 179 191 179 179 176 165 170 154 159 159 152 160 171 165 168 153 153 161 154 147 155 177 183 169 167
3 0 0 357 4 16 6 28 111 142 151 169 131 154 171 172 187 188 182 204 183 173 185 182 175 166 163 172 169 157 160 178 174 172 157 149 149 130 107 95 130 169 227 207